DW8913 Weather Reports


Display with metric or nautical units.
time (UTC)temp
F
wind
direction
speed
MPH
gust
MPH
rain 1hr
in
rain 24hr
in
rain mn
in
humidity
%
barometer
mb
20260510093042 55 140 0.0 0.0 0.00 0.03 0.00 94 1010.3
20260510091513 55 139 0.0 1.0 0.00 0.03 0.00 94 1010.0
20260510090056 55 139 0.0 2.0 0.00 0.03 0.00 95 1009.8
20260510084523 54 147 0.0 2.0 0.00 0.03 0.00 95 1010.0
20260510083102 54 174 0.0 2.0 0.00 0.03 0.00 95 1009.8
20260510081539 53 200 0.0 0.0 0.00 0.03 0.00 94 1009.7
20260510080002 53 200 0.0 0.0 0.00 0.03 0.00 94 1009.7
20260510074542 53 200 0.0 0.0 0.00 0.03 0.00 94 1009.7
20260510073014 53 201 0.0 0.0 0.00 0.03 0.00 94 1009.8
20260510071558 53 200 0.0 0.0 0.00 0.03 0.00 94 1009.8
20260510070027 53 200 0.0 0.0 0.00 0.03 0.00 93 1009.8
20260510064606 54 200 0.0 0.0 0.00 0.03 0.00 94 1009.8
20260510063045 54 200 0.0 0.0 0.00 0.03 0.00 94 1009.9
20260510061513 54 200 0.0 0.0 0.00 0.03 0.00 93 1010.0
20260510060058 54 200 0.0 0.0 0.00 0.03 0.00 93 1009.9
20260510054526 55 200 0.0 0.0 0.00 0.03 0.00 93 1009.9
20260510053124 54 197 0.0 0.0 0.00 0.03 0.00 93 1010.0
20260510051543 55 195 0.0 0.0 0.00 0.03 0.00 93 1010.2
20260510050020 55 185 0.0 0.0 0.00 0.03 0.00 93 1010.2
20260510044610 55 189 0.0 1.0 0.00 0.03 0.00 93 1010.3
20260510043025 55 188 0.0 1.0 0.00 0.03 0.00 93 1010.3
20260510041610 55 172 0.0 1.0 0.00 0.03 0.00 93 1010.2
20260510040046 55 179 0.0 0.0 0.00 0.03 0.00 93 1010.2
20260510034516 55 120 0.0 0.0 0.00 0.03 0.03 93 1010.1
20260510033113 55 221 0.0 2.0 0.00 0.03 0.03 92 1010.1
20260510031531 55 145 0.0 1.0 0.00 0.03 0.03 92 1010.0
20260510030001 55 109 0.0 1.0 0.00 0.03 0.03 92 1009.8
20260510024538 55 31 0.0 2.0 0.00 0.03 0.03 92 1010.0
20260510023010 56 8 0.0 0.0 0.00 0.03 0.03 91 1010.0
20260510021554 56 207 0.0 1.0 0.00 0.03 0.03 91 1010.1
20260510020027 56 202 0.0 0.0 0.00 0.03 0.03 91 1010.0
20260510014609 56 202 0.0 0.0 0.00 0.03 0.03 91 1009.8
20260510013035 56 202 0.0 0.0 0.00 0.03 0.03 90 1009.9
20260510011615 56 202 0.0 1.0 0.00 0.03 0.03 90 1009.8
20260510010044 57 208 0.0 0.0 0.00 0.03 0.03 89 1009.6
20260510004516 57 200 0.0 1.0 0.00 0.03 0.03 89 1009.6
20260510003105 58 181 0.0 0.0 0.00 0.03 0.03 88 1009.5
20260510001531 58 146 0.0 1.0 0.00 0.03 0.03 87 1009.3
20260510000001 59 137 0.0 3.0 0.00 0.03 0.03 86 1009.2
20260509234552 60 225 0.0 2.0 0.00 0.03 0.03 84 1009.0
20260509233012 61 79 0.0 3.0 0.00 0.03 0.03 82 1008.9
20260509231556 62 114 1.0 5.0 0.00 0.03 0.03 81 1008.8
20260509230026 63 131 0.0 3.0 0.00 0.03 0.03 80 1008.7
20260509224608 64 141 2.0 6.0 0.00 0.03 0.03 80 1008.7
20260509223035 62 113 1.0 6.0 0.00 0.03 0.03 82 1008.8
20260509221603 61 163 0.0 4.0 0.00 0.03 0.03 83 1008.9
20260509220030 61 89 1.0 4.0 0.00 0.03 0.03 83 1008.9
20260509214501 61 148 0.0 5.0 0.00 0.03 0.03 81 1008.7
20260509213043 62 124 0.0 5.0 0.00 0.03 0.03 80 1008.8
20260509211513 61 165 0.0 3.0 0.00 0.03 0.03 81 1008.8
20260509204528 64 96 2.0 6.0 0.00 0.03 0.03 77 1009.0
20260509203116 65 89 1.0 6.0 0.00 0.03 0.03 78 1009.0
20260509201553 64 136 2.0 8.0 0.00 0.03 0.03 79 1009.1
20260509200015 63 94 3.0 11.0 0.00 0.03 0.03 81 1009.3
20260509194555 62 174 2.0 7.0 0.01 0.03 0.03 86 1009.7
20260509193034 61 46 2.0 8.0 0.02 0.03 0.03 87 1009.8
20260509191608 61 222 2.0 6.0 0.03 0.03 0.03 89 1009.8
20260509190037 60 140 1.0 6.0 0.03 0.03 0.03 89 1010.1
20260509184501 60 71 2.0 7.0 0.02 0.02 0.02 88 1010.1
20260509183044 60 91 5.0 13.0 0.00 0.00 0.00 86 1010.8
20260509181514 61 153 3.0 8.0 0.00 0.00 0.00 84 1010.7
20260509180053 61 77 2.0 8.0 0.00 0.00 0.00 82 1010.7
20260509174525 61 148 3.0 9.0 0.00 0.00 0.00 83 1010.7
20260509173109 61 281 3.0 8.0 0.00 0.00 0.00 79 1010.9
20260509171542 62 146 3.0 7.0 0.00 0.00 0.00 76 1011.0
20260509170003 64 208 2.0 6.0 0.00 0.00 0.00 73 1011.3
20260509164552 65 172 2.0 9.0 0.00 0.00 0.00 73 1011.1
20260509163020 66 104 2.0 7.0 0.00 0.00 0.00 72 1011.0
20260509161602 66 278 2.0 6.0 0.00 0.00 0.00 74 1011.3
20260509160030 64 56 2.0 7.0 0.00 0.00 0.00 74 1011.9
20260509154606 64 153 3.0 6.0 0.00 0.00 0.00 75 1012.1
20260509153022 63 96 1.0 5.0 0.00 0.00 0.00 77 1012.4
20260509151605 62 120 2.0 7.0 0.00 0.00 0.00 77 1012.5
20260509150029 62 180 1.0 6.0 0.00 0.00 0.00 78 1012.6
20260509144710 62 96 1.0 7.0 0.00 0.00 0.00 78 1012.5
20260509143048 62 41 1.0 7.0 0.00 0.00 0.00 78 1012.5
20260509141520 62 263 1.0 5.0 0.00 0.00 0.00 77 1012.4
20260509140050 63 75 2.0 6.0 0.00 0.00 0.00 76 1012.4
20260509134527 61 180 2.0 7.0 0.00 0.00 0.00 79 1012.6
20260509133107 61 151 1.0 4.0 0.00 0.00 0.00 79 1012.6
20260509131542 61 72 1.0 5.0 0.00 0.00 0.00 79 1012.7
20260509130012 61 69 1.0 7.0 0.00 0.00 0.00 80 1012.8
20260509124604 61 61 2.0 7.0 0.00 0.00 0.00 78 1012.7
20260509123022 61 126 2.0 7.0 0.00 0.00 0.00 79 1012.6
20260509121608 60 132 1.0 6.0 0.00 0.00 0.00 80 1012.7
20260509120043 59 77 1.0 6.0 0.00 0.00 0.00 82 1012.7
20260509114511 58 77 2.0 7.0 0.00 0.00 0.00 83 1012.7
20260509113055 58 79 1.0 6.0 0.00 0.00 0.00 83 1012.7
20260509111558 57 90 1.0 6.0 0.00 0.00 0.00 84 1012.8
20260509110108 56 124 1.0 7.0 0.00 0.00 0.00 85 1012.8
20260509104538 56 105 2.0 8.0 0.00 0.00 0.00 85 1012.8
20260509103005 56 147 2.0 10.0 0.00 0.00 0.00 85 1012.8
20260509101549 56 108 2.0 7.0 0.00 0.00 0.00 84 1012.7
20260509100025 56 139 1.0 8.0 0.00 0.00 0.00 84 1012.5
20260509094555 56 160 1.0 6.0 0.00 0.00 0.00 83 1012.6